Location: Catacaguana
(10.4120°N, 66.7591°W)
Time: 04:41:53
(UTC+00:00)

FengYun 1-2 T - Visible Passes

Search period start: 28 January 2023 00:00
Search period end: 07 February 2023 00:00
Orbit: 846 x 881 km, 98.7° (Epoch: 27 January)

Date Brightness Start Highest point End Pass type
(mag) Time Alt. Az. Time Alt. Az. Time Alt. Az.
28 Jan 4.2 09:48:41 10° NNE 09:54:19 87° WNW 09:59:58 10° SSW visible
29 Jan 4.4 09:40:40 10° NNE 09:46:17 78° ESE 09:51:56 10° S visible
30 Jan 4.8 09:32:41 10° NNE 09:38:14 63° ESE 09:43:49 10° S visible
31 Jan 5.1 09:24:45 10° NNE 09:30:12 51° ESE 09:35:40 10° S visible
01 Feb 5.6 09:16:53 10° NNE 09:22:10 42° ESE 09:27:27 10° S visible
02 Feb 5.9 09:09:04 10° NE 09:14:07 34° ESE 09:19:10 10° SSE visible
03 Feb 6.3 09:01:21 10° NE 09:06:05 28° E 09:10:49 10° SSE visible
04 Feb 6.6 08:53:43 10° NE 08:58:02 23° E 09:02:21 10° SSE visible
05 Feb 6.9 08:46:12 10° ENE 08:49:59 18° E 08:53:45 10° SE visible
05 Feb 4.9 10:25:44 10° NNW 10:30:43 33° WNW 10:35:45 10° SW visible
06 Feb 7.1 08:38:54 10° ENE 08:41:56 15° E 08:44:58 10° SE visible
06 Feb 4.7 10:17:28 10° N 10:22:43 41° WNW 10:27:59 10° SW visible
